MUOS-1

Last updated on Tue Sep 22 2026 00:03:12 GMT+0000 (Coordinated Universal Time)

1 38093U 12009A 26264.54864116 -.00000127 00000+0 00000+0 0 9999 2 38093 5.6711 46.9722 0052187 3.7215 47.2770 1.00271062 53415
UTC large
Height (km)
Speed (km/s)
/
Latitude / Longitude
Inclination (degrees)
Orbital Period (minutes)
Azimuth
Elevation
Range (km)
Doppler Factor

Next 0 passes for location: London (51.5072 / 0.1276)

No passes found over London.
MUOS-1